Stations météo

réclame
Mon MeteoGroup
Dalwhinnie, Grande-Bretagne (99005): Température de l'air & dewpoint: 12.10.2017 06:00:00 - 18.10.2017 06:00:00 (BST)Dalwhinnie, Grande-Bretagne (99005): Quantités de précipitations: 12.10.2017 06:00:00 - 18.10.2017 06:00:00 (BST)
Date & Time tt [°C] td [°C] rr [mm]
18.10.2017 06:00:00 5,8 5,2 0,0
18.10.2017 05:00:00 5,7 5,3 0,0
18.10.2017 04:00:00 5,7 5,3 0,0
18.10.2017 03:00:00 6,0 5,4 0,0
18.10.2017 02:00:00 6,1 5,3 0,0
18.10.2017 01:00:00 6,0 5,0 0,0
18.10.2017 00:00:00 6,2 5,1 0,0
17.10.2017 23:00:00 6,2 5,5 0,0
17.10.2017 22:00:00 5,8 5,2 0,2
17.10.2017 21:00:00 6,9 6,3 0,0
17.10.2017 20:00:00 7,4 6,1 0,0
17.10.2017 19:00:00 7,9 6,3 0,0
17.10.2017 18:00:00 8,3 6,7 0,0
17.10.2017 17:00:00 8,9 6,6 0,0
17.10.2017 16:00:00 9,2 7,4 0,0
17.10.2017 15:00:00 9,8 8,4 1,8
17.10.2017 14:00:00 10,4 8,9 0,4
17.10.2017 13:00:00 11,8 8,5 0,0
17.10.2017 12:00:00 11,1 8,8 0,0
17.10.2017 11:00:00 11,0 9,4 0,0
17.10.2017 10:00:00 11,3 9,1 0,0
17.10.2017 09:00:00 11,0 8,7 0,0
17.10.2017 08:00:00 11,1 8,6 0,0
17.10.2017 07:00:00 11,0 8,9 0,0
17.10.2017 06:00:00 11,4 8,6 0,2
17.10.2017 05:00:00 11,1 9,3 0,2
17.10.2017 04:00:00 11,2 9,3 0,4
17.10.2017 03:00:00 10,5 9,2 1,4
17.10.2017 02:00:00 10,4 9,3 2,0
17.10.2017 01:00:00 10,3 9,3 2,2
17.10.2017 00:00:00 10,6 9,3 1,8
16.10.2017 23:00:00 10,8 9,3 1,2
16.10.2017 22:00:00 10,3 8,8 0,2
16.10.2017 21:00:00 10,5 8,6 1,0
16.10.2017 20:00:00 10,8 9,2 1,6
16.10.2017 19:00:00 11,6 9,3 0,4
16.10.2017 18:00:00 12,3 10,1 0,2
16.10.2017 17:00:00 13,2 10,0 0,0
16.10.2017 16:00:00 11,9 10,2 0,0
16.10.2017 15:00:00 10,4 8,9 0,0
16.10.2017 14:00:00 8,0 6,9 0,0
16.10.2017 13:00:00 7,2 6,9 0,0
16.10.2017 12:00:00 7,0 6,5 1,4
16.10.2017 11:00:00 6,8 6,2 2,6
16.10.2017 10:00:00 7,0 6,6 3,0
16.10.2017 09:00:00 6,9 6,4 1,0
16.10.2017 08:00:00 6,7 6,5 0,2
16.10.2017 07:00:00 6,5 6,3 2,4
16.10.2017 06:00:00 6,5 6,2 2,2
16.10.2017 05:00:00 6,5 6,2 0,0
16.10.2017 04:00:00 6,5 6,1 0,2
16.10.2017 03:00:00 6,6 6,1 0,0
16.10.2017 02:00:00 6,7 6,1 0,0
16.10.2017 01:00:00 6,9 6,2 0,0
16.10.2017 00:00:00 7,0 6,1 0,0
15.10.2017 23:00:00 7,4 6,1 0,0
15.10.2017 22:00:00 7,6 6,3 0,0
15.10.2017 21:00:00 8,1 6,3 0,0
15.10.2017 20:00:00 8,3 6,3 0,0
15.10.2017 19:00:00 8,7 6,1 0,0
15.10.2017 18:00:00 9,4 6,5 0,0
15.10.2017 17:00:00 9,5 7,0 0,0
15.10.2017 16:00:00 10,6 8,8 0,0
15.10.2017 15:00:00 14,0 10,9 0,0
15.10.2017 14:00:00 14,7 10,8 0,0
15.10.2017 13:00:00 14,0 11,7 0,2
15.10.2017 12:00:00 12,9 11,5 0,4
15.10.2017 11:00:00 11,8 11,1 0,6
15.10.2017 10:00:00 11,6 10,6 0,6
15.10.2017 09:00:00 11,4 10,6 0,4
15.10.2017 08:00:00 11,6 10,8 0,0
15.10.2017 07:00:00 11,6 10,7 0,2
15.10.2017 06:00:00 12,0 10,6 0,0
15.10.2017 05:00:00 12,7 10,2 0,0
15.10.2017 04:00:00 13,1 10,2 0,0
15.10.2017 03:00:00 12,6 9,9 0,0
15.10.2017 02:00:00 12,5 10,0 0,0
15.10.2017 01:00:00 11,7 10,0 0,2
15.10.2017 00:00:00 10,5 8,8 0,0
14.10.2017 23:00:00 10,0 8,5 0,0
14.10.2017 22:00:00 9,9 7,6 0,0
14.10.2017 21:00:00 9,4 7,1 0,0
14.10.2017 20:00:00 9,1 7,0 0,0
14.10.2017 19:00:00 8,8 7,2 0,0
14.10.2017 18:00:00 8,9 7,5 0,0
14.10.2017 17:00:00 9,5 6,6 0,0
14.10.2017 16:00:00 9,5 6,6 0,0
14.10.2017 15:00:00 8,9 7,1 0,4
14.10.2017 14:00:00 9,0 6,2 0,2
14.10.2017 13:00:00 10,5 6,7 0,0
14.10.2017 12:00:00 10,5 6,3 0,0
14.10.2017 11:00:00 10,7 5,8 0,0
14.10.2017 10:00:00 9,9 6,1 0,0
14.10.2017 09:00:00 9,6 5,0 0,0
14.10.2017 08:00:00 9,3 4,4 0,0
14.10.2017 07:00:00 9,1 3,9 0,0
14.10.2017 06:00:00 9,2 4,5 0,0
14.10.2017 05:00:00 9,5 4,9 0,0
14.10.2017 04:00:00 9,4 4,9 0,0
14.10.2017 03:00:00 9,7 4,4 0,0
14.10.2017 02:00:00 9,9 3,8 0,0
14.10.2017 01:00:00 10,4 4,9 0,0
14.10.2017 00:00:00 10,6 5,5 0,0
13.10.2017 23:00:00 10,1 4,7 0,0
13.10.2017 22:00:00 10,3 5,0 0,0
13.10.2017 21:00:00 11,0 4,4 0,0
13.10.2017 20:00:00 11,4 5,8 0,0
13.10.2017 19:00:00 11,8 6,6 0,0
13.10.2017 18:00:00 11,9 7,2 0,0
13.10.2017 17:00:00 12,6 7,3 0,0
13.10.2017 16:00:00 12,4 7,6 0,0
13.10.2017 15:00:00 12,4 7,8 0,0
13.10.2017 14:00:00 13,3 8,4 0,0
13.10.2017 13:00:00 13,2 8,0 0,0
13.10.2017 12:00:00 14,4 10,3 0,0
13.10.2017 11:00:00 15,1 13,1 0,2
13.10.2017 10:00:00 14,4 13,8 1,0
13.10.2017 09:00:00 13,9 13,3 0,8
13.10.2017 08:00:00 14,0 13,1 1,2
13.10.2017 07:00:00 14,8 13,5 1,6
13.10.2017 06:00:00 14,2 13,3 0,8
13.10.2017 05:00:00 13,7 12,8 0,8
13.10.2017 04:00:00 13,9 12,9 1,0
13.10.2017 03:00:00 13,2 12,1 0,4
13.10.2017 02:00:00 12,7 11,5 0,4
13.10.2017 01:00:00 11,6 10,3 0,0
13.10.2017 00:00:00 10,7 9,6 0,0
12.10.2017 23:00:00 10,5 8,9 0,2
12.10.2017 22:00:00 9,7 8,2 0,0
12.10.2017 21:00:00 9,4 7,5 0,0
12.10.2017 20:00:00 9,5 6,5 0,0
12.10.2017 19:00:00 9,8 6,1 0,0
12.10.2017 18:00:00 9,6 6,4 0,0
12.10.2017 17:00:00 9,5 6,5 0,0
12.10.2017 16:00:00 9,9 8,0 0,0
12.10.2017 15:00:00 9,6 7,3 0,0
12.10.2017 14:00:00 9,6 6,7 0,0
12.10.2017 13:00:00 9,8 6,6 0,0
12.10.2017 12:00:00 9,7 6,1 0,0
12.10.2017 11:00:00 8,1 6,1 0,0
12.10.2017 10:00:00 8,4 4,3 0,0
12.10.2017 09:00:00 7,7 4,8 0,0
12.10.2017 08:00:00 7,3 4,3 0,0
12.10.2017 07:00:00 6,8 4,7 0,2
12.10.2017 06:00:00 7,0 4,5 0,2

tt = Température de l'air
td = dewpoint
rr = Quantités de précipitations

stations d'obs. à proximité